sat.trackr.live / text

‹ back to catalog

EUTELSAT 16A

NORAD 37836 · 2011-057A

PAYLOAD ACTIVE UNKNOWN

§ Identity

Operator
Country
EUTE
Launch date
2011-10-07
Launch site
XICLF
Launch vehicle
Mass (kg)
RCS (m²)
7.66

Purposes: comms

External: N2YO · Heavens-Above · Gunter

§ Orbital elements

Epoch: 2026-09-20T03:18:42.667776Z

Period
1,436.08 min
Inclination
0.1062°
Eccentricity
0.0005492
Mean motion
1.00272941 rev/d
Perigee alt
35,763.1 km
Apogee alt
35,809.4 km
Semi-major
42,164.4 km
B*
0.0000e+0
RAAN
65.4286°
Arg perigee
113.5668°
Mean anomaly
245.7171°
Rev number
828

§ Raw data

EUTELSAT 16A1 37836U 11057A   26263.13799384  .00000100  00000+0  00000+0 0  99932 37836   0.1062  65.4286 0005492 113.5668 245.7171  1.00272941  8280

JSON: /api/v1/satellites/37836 · /tle

For live sub-satellite position, see the globe view (requires WebGL).

§ Visibility from observer

Set your observer location to see the next 7 days of passes ≥ 10°. The values pass through the URL so the page stays shareable.

No JS? Fill the form by hand. The geolocation button needs JavaScript.